Flag for United Arab Emirates Weather past 2 weeks in Umm al-Quwain, Umm al-Quwain, United Arab Emirates

Now
88 °F

Clear.


Feels Like: 94 °F
Forecast: 89 / 96 °F
Wind: 12 mph from East

Location: Sharjah International Airport

Current Time: Sep 5, 2015 at 6:05:55 AM

Latest Report: Sep 5, 2015 at 5:00 AM


Visibility: 10 mi

Pressure: 29.77 "Hg

Humidity: 59%

Dew point: 72 °F

Historic Weather in Umm al-Quwain — Graph

°F

Umm al-Quwain temperature yesterday

Maximum temperature yesterday: 102 °F (at 2:00 PM)
Minimum temperature yesterday: 90 °F (at 2:00 AM)
Average temperature yesterday: 94 °F

Past Weeks' High & Low Weather Summary

 TemperatureHumidityPressure
High111 °F (Aug 23, 1:00 PM)89% (Sep 1, 3:00 AM)29.77 "Hg (Sep 1, 3:00 AM)
Low82 °F (Aug 27, 7:00 AM)12% (Aug 26, 3:00 PM)29.50 "Hg (Aug 23, 5:00 PM)
Average97 °F41%29.58 "Hg
* Reported Aug 21 5:00 AM — Sep 5 5:00 AM, Umm al-Quwain, Weather by CustomWeather, © 2015

Note: Actual official high and low records may vary slightly from our data, if they occured in-between our weather recording intervals... More about our weather records

Advertising

Umm al-Quwain weather history for previous 24 hours

 ConditionsComfort  
Time TempWeatherWind HumidityBarometerVisibility
5:00 AM
Sat, Sep 5
88 °FClear.12 mph59%29.77 "Hg10 mi
4:00 AM88 °FClear.15 mph59%29.77 "Hg10 mi
3:00 AM88 °FClear.15 mph59%29.77 "Hg10 mi
2:00 AM88 °FClear.14 mph55%29.77 "Hg10 mi
1:00 AM88 °FClear.17 mph59%29.77 "Hg10 mi
12:00 AM90 °FClear.15 mph55%29.77 "Hg5 mi
11:00 PM
Fri, Sep 4
90 °FClear.16 mph55%29.77 "Hg5 mi
10:00 PM91 °FClear.16 mph52%29.77 "Hg5 mi
9:00 PM93 °FClear.18 mph49%29.74 "Hg4 mi
8:00 PM93 °FDuststorm.12 mph49%29.74 "Hg4 mi
7:00 PM91 °FClear.17 mph56%29.71 "Hg3 mi
6:00 PM93 °FClear.22 mph53%29.71 "Hg1 mi
5:00 PM95 °FClear.14 mph47%29.68 "Hg1 mi
4:00 PM99 °FClear.26 mph42%29.68 "Hg1 mi
3:00 PM100 °FClear.23 mph40%29.68 "Hg1 mi
2:00 PM102 °FClear.20 mph35%29.68 "Hg1 mi
1:00 PM100 °FDuststorm.22 mph40%29.71 "Hg1 mi
12:00 PM99 °FDuststorm.22 mph42%29.71 "Hg1 mi
11:00 AM99 °FDuststorm.24 mph42%29.71 "Hg2 mi
10:00 AM97 °FDuststorm.23 mph47%29.74 "Hg2 mi
9:00 AM95 °FDuststorm.22 mph50%29.71 "Hg2 mi
8:00 AM91 °FDuststorm.23 mph56%29.71 "Hg3 mi
7:00 AM90 °FDuststorm.17 mph59%29.68 "Hg3 mi
6:00 AM90 °FSunny.20 mph59%29.65 "Hg10 mi
Weather by CustomWeather, © 2015

See weather overviewHow to use our weather pages